Terug naar catalogus

STARLINK-2094

ActiefCommunicatieVLEO
NORAD 47375·PAYLOAD·🇺🇸 United States

Gelanceerd Jan 20, 2021 vanaf Cape Canaveral Space Force Station

Loading…

Volgende Passages (komende 24 uur)

TLE

VersSource: CelesTrak SupGP

Epoch: Sep 15, 2026, 00:30 UTC

1 47375C 21005AC  26258.02131944  .00016496  00000+0  53053-3 0  2583
2 47375  53.1587 261.4160 0001410  92.4322  24.2377 15.31688612    12

Volg STARLINK-2094 in realtime met AllMySat

Download on the App Store